Flag for Greenland

Past Weather in Kangerlussuaq, Greenland — Yesterday and Last 2 Weeks

Now
14 °F

Light snow. Partly sunny.


Feels Like: 6 °F
Forecast: 16 / 6 °F
Wind: 5 mph from Northeast

Location: Sdr Stroemfjord
Current Time: Oct 26, 2020 at 10:56:25 am
Latest Report: Oct 26, 2020 at 9:50 am
Visibility: 3 mi
Pressure29.47 "Hg
Humidity: 85%
Dew Point: 10 °F
Location of KangerlussuaqLocation

Past Weather in Kangerlussuaq — Graph

°F

Kangerlussuaq Temperature Yesterday

Maximum temperature yesterday: 10 °F (at 11:50 am)
Minimum temperature yesterday: 5 °F (at 5:50 am)
Average temperature yesterday: 8 °F

High & Low Weather Summary for the Past Weeks

 TemperatureHumidityPressure
High54 °F (Oct 16, 1:50 pm)100% (Oct 22, 12:50 am)30.60 "Hg (Oct 22, 12:50 am)
Low5 °F (Oct 25, 5:50 am)42% (Oct 19, 12:50 pm)29.42 "Hg (Oct 25, 11:50 pm)
Average32 °F71%29.88 "Hg
* Reported Oct 11 9:50 am — Oct 26 8:50 am, Kangerlussuaq. Weather by CustomWeather, © 2020

Note: Actual official high and low records may vary slightly from our data, if they occured in-between our weather recording intervals... More about our weather records

Kangerlussuaq Weather History for the Previous 24 Hours

Scroll right to see more
 ConditionsComfort  
Time TempWeatherWind HumidityBarometerVisibility
8:50 am
Mon, Oct 26
12 °FLight snow. Overcast.6 mph92%29.45 "Hg2 mi
7:50 am12 °FLight snow. Ice fog.6 mph92%29.45 "Hg1 mi
6:50 am12 °FLight snow. Ice fog.7 mph85%29.45 "Hg2 mi
5:50 am12 °FLight snow. Mostly cloudy.8 mph79%29.45 "Hg3 mi
4:50 am12 °FLight snow. Overcast.7 mph79%29.42 "HgN/A
3:50 am12 °FMostly cloudy.6 mph73%29.42 "HgN/A
2:50 am9 °FSnow flurries. Mostly cloudy.8 mph85%29.42 "HgN/A
1:50 am9 °FSnow flurries. Passing clouds.8 mph85%29.42 "HgN/A
12:50 am7 °FPassing clouds.9 mph85%29.42 "HgN/A
11:50 pm
Sun, Oct 25
7 °FOvercast.8 mph85%29.42 "HgN/A
10:50 pm7 °FPassing clouds.10 mph85%29.45 "HgN/A
9:50 pm7 °FPassing clouds.9 mph85%29.45 "HgN/A
8:50 pm7 °FPassing clouds.9 mph85%29.45 "HgN/A
7:50 pm7 °FPassing clouds.7 mph85%29.45 "HgN/A
6:50 pm7 °FPassing clouds.7 mph85%29.45 "HgN/A
5:50 pm7 °FPassing clouds.6 mph85%29.47 "HgN/A
4:50 pm9 °FFrigid.7 mph78%29.47 "HgN/A
3:50 pm10 °FBroken clouds.8 mph79%29.50 "HgN/A
2:50 pm10 °FPassing clouds.8 mph79%29.50 "HgN/A
1:50 pm10 °FCold.9 mph72%29.53 "HgN/A
12:50 pm9 °FFrigid.7 mph78%29.56 "HgN/A
11:50 am10 °FPassing clouds.7 mph72%29.56 "HgN/A
10:50 am9 °FFrigid.7 mph78%29.59 "HgN/A
Weather by CustomWeather, © 2020

See weather overview